Location: Ottawa
(45.4170°N, 75.7000°W)
Time: 03:51:45
(UTC-04:00)

Amateur Radio Satellites - All Passes

Search period start: 29 July 2016 03:21
Search period end: 30 July 2016 03:21
Location: Ottawa, 45.4170°N, 75.7000°W

Satellite Date Start Highest point End Downlink Frequencies (MHz)
Time Altitude Azimuth
PCSat 29 Jul 03:27:15 03:32:18 37° 48° (NE) 03:37:19 145.827
AIST 2 29 Jul 03:44:09 03:46:08 13° 32° (NNE) 03:48:06 435.215
ISS 29 Jul 03:48:18 03:51:11 29° 220° (SW) 03:54:03 145.825
CUSAT 1 29 Jul 03:48:47 03:52:32 56° 99° (E) 03:55:33 437.405
GONETS M04 29 Jul 03:59:47 04:07:49 42° 274° (W) 04:15:53
Gurwin Techsat 1B 29 Jul 04:00:23 04:05:27 45° 292° (WNW) 04:10:28 435.225
ITAMSAT 1 29 Jul 04:02:54 04:08:06 71° 102° (ESE) 04:13:16 435.822/435.867
Oscar 19 29 Jul 04:04:28 04:08:16 21° 299° (WNW) 04:12:04 437.125/150
KKS-1 29 Jul 04:05:39 04:10:05 85° 252° (WSW) 04:14:35 437.445
DANDE 29 Jul 04:28:58 04:34:09 61° 100° (E) 04:38:02 436.750
BEESAT 3 29 Jul 04:33:01 04:34:46 13° 250° (WSW) 04:36:31 437.485
STARS 29 Jul 04:38:50 04:43:13 76° 256° (WSW) 04:47:40 437.465
BEESAT 2 29 Jul 04:42:20 04:45:07 18° 248° (WSW) 04:47:53 435.950
CUBESAT XI-V 29 Jul 04:43:06 04:47:11 32° 68° (ENE) 04:51:17 437.345
AO-7 29 Jul 04:45:14 04:53:33 63° 104° (ESE) 05:01:45 29.400- 29.500
MOZHAYETS 4 29 Jul 04:55:36 04:59:34 28° 265° (W) 05:03:32
PCSat 29 Jul 05:10:43 05:15:43 39° 248° (WSW) 05:20:42 145.827
Cosmos 2499 29 Jul 05:14:56 05:19:20 16° 285° (WNW) 05:23:34 435.465 / 435.565
HORYU 2 29 Jul 05:19:02 05:22:40 24° 94° (E) 05:26:16 437.375
AIST 2 29 Jul 05:21:16 05:25:26 64° 52° (NE) 05:29:34 435.215
O/OREOS (USA 219) 29 Jul 05:24:28 05:28:21 27° 55° (NE) 05:32:14 437.305
ITAMSAT 1 29 Jul 05:43:34 05:47:01 18° 301° (WNW) 05:50:27 435.822/435.867
CUTE-I 29 Jul 05:58:49 06:00:38 12° 87° (E) 06:02:26 437.470
NOAA 15 29 Jul 06:10:27 06:14:18 20° 92° (E) 06:18:07 137.62
DANDE 29 Jul 06:14:47 06:16:56 13° 289° (WNW) 06:18:53 436.750
CUBESAT XI-V 29 Jul 06:20:35 06:24:35 29° 265° (W) 06:28:35 437.345
RS-15 29 Jul 06:22:27 06:33:07 48° 110° (ESE) 06:44:19 29.354- 29.394
BRITE-PL 29 Jul 06:37:12 06:41:54 47° 99° (E) 06:46:57 437.365/2234.400
AO-7 29 Jul 06:38:34 06:45:53 36° 305° (NW) 06:53:11 29.400- 29.500
NOAA 18 29 Jul 06:50:25 06:55:26 34° 97° (E) 07:00:23 137.9125
HORYU 2 29 Jul 06:55:12 06:59:19 37° 292° (WNW) 07:03:25 437.375
AIST 2 29 Jul 07:01:04 07:03:25 15° 250° (WSW) 07:05:46 435.215
STRAND 1 29 Jul 07:02:17 07:07:19 56° 71° (ENE) 07:12:22 437.568
O/OREOS (USA 219) 29 Jul 07:03:40 07:07:50 36° 254° (WSW) 07:12:00 437.305
DOVE 4 29 Jul 07:11:14 07:15:28 25° 93° (E) 07:19:46 437.250
Cubesat XI-IV 29 Jul 07:13:10 07:18:26 54° 101° (E) 07:23:38 437.490
SO-50 29 Jul 07:21:52 07:25:48 25° 113° (ESE) 07:29:45 436.795
LilacSat-2 29 Jul 07:26:05 07:29:59 83° 105° (ESE) 07:33:49 437.200
GOMX 1 29 Jul 07:28:24 07:33:29 69° 102° (ESE) 07:38:50 467.674
Cosmos 2491 29 Jul 07:31:49 07:39:09 29° 64° (ENE) 07:46:28 435.465 / 435.565
CUTE-I 29 Jul 07:36:06 07:41:29 85° 105° (ESE) 07:46:48 437.470
NOAA 15 29 Jul 07:49:16 07:54:27 58° 289° (WNW) 07:59:36 137.62
CANX-2 29 Jul 07:50:00 07:51:52 13° 89° (E) 07:53:42 2200.000
HO-68 29 Jul 07:52:13 07:57:26 21° 90° (E) 08:02:36 435.675
CUTE 1.7 + AOD 2 29 Jul 08:02:28 08:04:57 15° 90° (E) 08:07:24 437.475
BRITE-PL 29 Jul 08:16:19 08:20:10 24° 294° (WNW) 08:24:15 437.365/2234.400
PRISM 29 Jul 08:16:24 08:20:11 39° 70° (ENE) 08:23:59 437.425
NOAA 18 29 Jul 08:31:01 08:36:07 38° 295° (WNW) 08:41:10 137.9125
RS-15 29 Jul 08:33:47 08:45:17 62° 315° (NW) 08:57:27 29.354- 29.394
SEEDS 29 Jul 08:36:48 08:40:15 25° 94° (E) 08:43:41 437.485
STRAND 1 29 Jul 08:43:06 08:46:50 20° 268° (W) 08:50:36 437.568
CINEMA 3 29 Jul 08:43:49 08:48:47 56° 100° (E) 08:53:40 145.822/145.860
COMPASS 1 29 Jul 08:44:36 08:47:46 21° 93° (E) 08:50:56 437.405
DOVE 4 29 Jul 08:48:23 08:53:19 48° 289° (WNW) 08:58:23 437.250
Cubesat XI-IV 29 Jul 08:53:57 08:58:08 24° 299° (WNW) 09:02:18 437.490
SO-50 29 Jul 09:01:16 09:06:01 51° 311° (NW) 09:10:46 436.795
YUBILEINY 29 Jul 09:02:24 09:10:08 37° 84° (E) 09:17:55 435.215
FUNcube-1 29 Jul 09:04:53 09:06:14 11° 87° (E) 09:07:34 145.935
ZACube-1 29 Jul 09:06:32 09:08:32 13° 88° (E) 09:10:30 437.345
ANTELSAT 29 Jul 09:06:53 09:09:36 16° 60° (ENE) 09:12:20 437.575/2403.000
GOMX 1 29 Jul 09:07:40 09:11:06 19° 298° (WNW) 09:14:39 467.674
UWE-3 29 Jul 09:09:52 09:13:25 22° 92° (E) 09:16:52 435.000/436.395/437.385
AAUSAT CUBESAT 2 29 Jul 09:10:17 09:13:59 31° 96° (E) 09:17:40 437.432
CUTE-I 29 Jul 09:17:42 09:20:48 16° 303° (WNW) 09:23:56 437.470
Cosmos 2504 29 Jul 09:23:33 09:28:43 17° 75° (ENE) 09:33:50 435.465 / 435.565
CANX-2 29 Jul 09:23:58 09:28:09 63° 286° (WNW) 09:32:18 2200.000
Cosmos 2491 29 Jul 09:28:06 09:36:49 71° 266° (W) 09:45:32 435.465 / 435.565
CUBEBUG 2 29 Jul 09:36:03 09:40:43 57° 100° (E) 09:45:14 437.445
CUTE 1.7 + AOD 2 29 Jul 09:37:00 09:41:07 52° 287° (WNW) 09:45:11 437.475
HO-68 29 Jul 09:38:42 09:45:55 80° 289° (WNW) 09:53:06 435.675
Oscar 11 29 Jul 09:42:14 09:46:01 29° 95° (E) 09:49:46 145.826/435.025
TIGRISAT 29 Jul 09:46:07 09:50:16 33° 67° (ENE) 09:54:28 435.000
PRISM 29 Jul 09:52:43 09:55:39 19° 267° (W) 09:58:36 437.425
UNISAT 6 29 Jul 10:02:52 10:07:21 49° 71° (ENE) 10:11:55 437.425
SEEDS 29 Jul 10:12:17 10:15:58 31° 292° (WNW) 10:19:39 437.485
COMPASS 1 29 Jul 10:19:39 10:23:27 35° 290° (WNW) 10:27:12 437.405
CINEMA 3 29 Jul 10:21:46 10:25:30 21° 297° (WNW) 10:29:13 145.822/145.860
M-CUBED/EXP-1 PRIME 29 Jul 10:23:20 10:26:53 21° 97° (E) 10:30:25 437.505
FUNcube-1 29 Jul 10:38:34 10:43:05 78° 285° (WNW) 10:47:26 145.935
ZACube-1 29 Jul 10:40:50 10:45:20 70° 286° (WNW) 10:49:42 437.345
ANTELSAT 29 Jul 10:41:05 10:45:44 72° 258° (WSW) 10:50:28 437.575/2403.000
NANOSAT C BR1 29 Jul 10:44:44 10:47:58 21° 65° (ENE) 10:51:13 145.865
SO-50 29 Jul 10:45:10 10:47:37 14° 333° (NNW) 10:50:04 436.795
UWE-3 29 Jul 10:45:42 10:50:05 42° 290° (WNW) 10:54:19 435.000/436.395/437.385
AAUSAT CUBESAT 2 29 Jul 10:46:00 10:49:21 24° 293° (WNW) 10:52:40 437.432
AUBIESAT-1 29 Jul 10:47:04 10:51:07 29° 100° (E) 10:55:07 437.475
DUCHIFAT 1 29 Jul 10:47:51 10:51:05 22° 65° (ENE) 10:54:20 145.980
DELFI C3 29 Jul 10:48:35 10:52:31 67° 101° (ESE) 10:56:26 145.870
RS-15 29 Jul 10:50:30 11:00:53 32° 347° (NNW) 11:11:35 29.354- 29.394
BUGSAT 1 29 Jul 10:54:36 10:56:09 12° 59° (ENE) 10:57:42 437.445
YUBILEINY 29 Jul 10:58:00 11:06:34 55° 285° (WNW) 11:15:16 435.215
JAS-2 29 Jul 10:59:13 11:02:28 16° 58° (ENE) 11:05:37 435.910
QB50P1 29 Jul 11:07:43 11:11:38 37° 69° (ENE) 11:15:36 145.935-145.965
Cosmos 2504 29 Jul 11:11:48 11:20:40 77° 95° (E) 11:29:26 435.465 / 435.565
CUBEBUG 2 29 Jul 11:13:38 11:16:53 19° 298° (WNW) 11:20:04 437.445
POPSAT HIP 1 29 Jul 11:14:16 11:18:18 43° 70° (ENE) 11:22:22 437.405
ESTCUBE 1 29 Jul 11:15:21 11:16:56 12° 88° (E) 11:18:32 437.505/2401.250
Oscar 11 29 Jul 11:18:23 11:22:06 28° 293° (WNW) 11:25:47 145.826/435.025
TIGRISAT 29 Jul 11:22:51 11:26:56 30° 265° (W) 11:31:05 435.000
Cosmos 2491 29 Jul 11:27:44 11:31:58 15° 287° (WNW) 11:36:12 435.465 / 435.565
HO-68 29 Jul 11:27:53 11:32:35 19° 309° (NW) 11:37:17 435.675
HUMSAT D 29 Jul 11:34:55 11:39:07 79° 286° (WNW) 11:43:15 437.325/437.525
QB50P2 29 Jul 11:35:34 11:39:49 79° 76° (ENE) 11:44:08 145.880/145.840
POLYITAN 1 29 Jul 11:38:11 11:42:27 80° 77° (ENE) 11:46:46 437.675
UNISAT 6 29 Jul 11:40:56 11:44:19 20° 269° (W) 11:47:46 437.425
M-CUBED/EXP-1 PRIME 29 Jul 11:57:03 12:01:37 51° 294° (WNW) 12:06:10 437.505
DX 1 29 Jul 11:57:55 12:00:03 13° 90° (E) 12:02:11 434.975-435.025
AISAT 29 Jul 12:05:27 12:09:04 23° 94° (E) 12:12:39 437.250
Oscar 19 29 Jul 12:06:38 12:09:42 16° 58° (ENE) 12:12:46 437.125/150
UKube-1 29 Jul 12:07:06 12:09:09 13° 90° (E) 12:11:10 .
NANOSAT C BR1 29 Jul 12:19:29 12:23:27 39° 262° (W) 12:27:29 145.865
AUBIESAT-1 29 Jul 12:21:18 12:25:34 36° 297° (WNW) 12:29:47 437.475
DUCHIFAT 1 29 Jul 12:22:35 12:26:32 39° 262° (W) 12:30:33 145.980
DELFI C3 29 Jul 12:25:19 12:26:51 12° 299° (WNW) 12:28:22 145.870
BUGSAT 1 29 Jul 12:26:49 12:30:54 77° 257° (WSW) 12:35:06 437.445
SPROUT 29 Jul 12:34:38 12:38:01 22° 93° (E) 12:41:22 437.525
JAS-2 29 Jul 12:41:06 12:47:02 83° 256° (WSW) 12:52:25 435.910
QB50P1 29 Jul 12:44:14 12:47:32 22° 267° (W) 12:50:51 145.935-145.965
ESTCUBE 1 29 Jul 12:49:47 12:54:17 77° 286° (WNW) 12:58:46 437.505/2401.250
CUBEBUG 1 29 Jul 12:50:55 12:55:21 76° 104° (ESE) 12:59:45 437.445
POPSAT HIP 1 29 Jul 12:51:15 12:54:18 19° 268° (W) 12:57:22 437.405
VELOX 1 29 Jul 12:56:06 13:00:33 73° 102° (ESE) 13:05:00 145.980
AO-85 29 Jul 12:56:29 13:00:49 25° 113° (ESE) 13:05:02 145.980
YUBILEINY 29 Jul 13:02:20 13:05:50 13° 311° (NW) 13:09:21 435.215
AIST 1 29 Jul 13:04:55 13:08:48 36° 92° (E) 13:12:44
50 SAT 29 Jul 13:06:14 13:09:50 71° 285° (WNW) 13:13:24 437.505
RS-15 29 Jul 13:07:03 13:18:01 36° 21° (NNE) 13:29:04 29.354- 29.394
Cosmos 2504 29 Jul 13:07:37 13:14:55 28° 296° (WNW) 13:22:11 435.465 / 435.565
QB50P2 29 Jul 13:15:23 13:16:11 10° 272° (W) 13:16:58 145.880/145.840
POLYITAN 1 29 Jul 13:18:14 13:18:50 10° 272° (W) 13:19:26 437.675
TISAT 1 29 Jul 13:21:35 13:24:23 17° 92° (E) 13:27:08 437.305
DX 1 29 Jul 13:32:19 13:36:40 65° 287° (WNW) 13:41:00 434.975-435.025
UKube-1 29 Jul 13:41:19 13:45:38 65° 287° (WNW) 13:49:54 .
AISAT 29 Jul 13:41:31 13:45:39 38° 291° (WNW) 13:49:45 437.250
Oscar 19 29 Jul 13:43:16 13:48:23 79° 257° (WSW) 13:53:33 437.125/150
Gurwin Techsat 1B 29 Jul 13:43:50 13:48:58 51° 70° (ENE) 13:54:07 435.225
ITAMSAT 1 29 Jul 13:45:30 13:49:16 20° 60° (ENE) 13:53:02 435.822/435.867
AO-7 29 Jul 13:56:14 14:02:47 27° 50° (NE) 14:09:21 29.400- 29.500
Cosmos 2499 29 Jul 14:08:45 14:13:38 16° 75° (ENE) 14:18:26 435.465 / 435.565
SPROUT 29 Jul 14:10:04 14:14:04 38° 291° (WNW) 14:18:04 437.525
SO-50 29 Jul 14:11:28 14:13:10 12° 23° (NNE) 14:14:51 436.795
CUSAT 1 29 Jul 14:17:48 14:20:38 35° 77° (ENE) 14:24:07 437.405
CUBEBUG 1 29 Jul 14:28:58 14:31:03 13° 300° (WNW) 14:33:06 437.445
JAS-2 29 Jul 14:31:11 14:32:50 11° 272° (W) 14:34:26 435.910
SWISSCUBE 29 Jul 14:31:48 14:35:24 21° 93° (E) 14:38:57 437.505
VELOX 1 29 Jul 14:34:10 14:36:28 14° 300° (WNW) 14:38:44 145.980
AO-85 29 Jul 14:35:48 14:41:03 56° 310° (NW) 14:46:03 145.980
AIST 1 29 Jul 14:43:19 14:46:33 21° 290° (WNW) 14:49:48
BEESAT 29 Jul 14:52:28 14:56:39 30° 96° (E) 15:00:48 436.000
TISAT 1 29 Jul 14:56:11 15:00:18 48° 289° (WNW) 15:04:23 437.305
DANDE 29 Jul 15:04:40 15:07:05 32° 76° (ENE) 15:09:44 436.750
GONETS M04 29 Jul 15:06:24 15:14:39 51° 89° (E) 15:22:57
ITUPSAT 1 29 Jul 15:17:00 15:21:39 49° 100° (E) 15:26:15 437.325
RS-15 29 Jul 15:20:32 15:32:57 76° 51° (NE) 15:45:15 29.354- 29.394
ITAMSAT 1 29 Jul 15:23:05 15:28:16 63° 258° (WSW) 15:33:28 435.822/435.867
Gurwin Techsat 1B 29 Jul 15:25:01 15:29:12 23° 267° (W) 15:33:24 435.225
AO-7 29 Jul 15:46:15 15:54:39 85° 250° (WSW) 16:03:06 29.400- 29.500
SO-50 29 Jul 15:50:30 15:54:56 41° 46° (NE) 15:59:15 436.795
KKS-1 29 Jul 15:55:34 15:58:20 16° 91° (E) 16:01:05 437.445
Cosmos 2499 29 Jul 15:56:30 16:05:21 75° 95° (E) 16:13:54 435.465 / 435.565
CUSAT 1 29 Jul 16:01:29 16:02:30 11° 267° (W) 16:03:35 437.405
SWISSCUBE 29 Jul 16:08:52 16:13:26 47° 290° (WNW) 16:17:58 437.505
HORYU 2 29 Jul 16:18:54 16:22:49 30° 66° (ENE) 16:26:44 437.375
AO-85 29 Jul 16:19:35 16:22:33 15° 330° (NNW) 16:25:26 145.980
PHONESAT 2.4 29 Jul 16:25:49 16:27:40 15° 157° (SSE) 16:29:31 2401.200-2431.200
STARS 29 Jul 16:27:04 16:29:57 17° 91° (E) 16:32:51 437.465
BEESAT 29 Jul 16:30:10 16:34:26 34° 293° (WNW) 16:38:41 436.000
NOAA 18 29 Jul 16:41:47 16:44:28 14° 54° (NE) 16:47:09 137.9125
MOZHAYETS 4 29 Jul 16:47:30 16:52:02 59° 101° (E) 16:56:31
ITUPSAT 1 29 Jul 16:55:34 16:59:09 21° 298° (WNW) 17:02:43 437.325
Cubesat XI-IV 29 Jul 16:59:47 17:03:15 18° 58° (ENE) 17:06:44 437.490
GONETS M04 29 Jul 17:03:40 17:11:40 40° 290° (WNW) 17:19:47
GOMX 1 29 Jul 17:05:30 17:06:07 10° 56° (ENE) 17:06:45 467.674
CUTE-I 29 Jul 17:21:27 17:25:50 26° 62° (ENE) 17:30:12 437.470
KKS-1 29 Jul 17:30:51 17:35:16 57° 288° (WNW) 17:39:39 437.445
SO-50 29 Jul 17:31:18 17:35:15 28° 245° (WSW) 17:39:06 436.795
NOAA 15 29 Jul 17:32:19 17:37:09 40° 67° (ENE) 17:42:02 137.62
RS-15 29 Jul 17:33:50 17:44:33 37° 254° (WSW) 17:55:09 29.354- 29.394
AO-7 29 Jul 17:43:02 17:48:34 19° 271° (W) 17:54:11 29.400- 29.500
BRITE-PL 29 Jul 17:50:57 17:55:01 60° 74° (ENE) 17:59:12 437.365/2234.400
Cosmos 2499 29 Jul 17:51:57 17:59:16 28° 295° (WNW) 18:06:24 435.465 / 435.565
HORYU 2 29 Jul 17:55:21 17:59:19 30° 264° (W) 18:03:19 437.375
PHONESAT 2.4 29 Jul 18:00:54 18:03:39 30° 174° (S) 18:06:25 2401.200-2431.200
STARS 29 Jul 18:02:18 18:06:38 52° 289° (WNW) 18:10:56 437.465
LilacSat-2 29 Jul 18:09:46 18:13:33 54° 73° (ENE) 18:17:23 437.200
PCSat 29 Jul 18:12:35 18:16:21 20° 106° (ESE) 18:20:09 145.827
CUBESAT XI-V 29 Jul 18:13:57 18:18:32 59° 100° (E) 18:23:06 437.345
NOAA 18 29 Jul 18:18:42 18:24:14 78° 72° (ENE) 18:29:48 137.9125
DOVE 4 29 Jul 18:19:15 18:22:56 27° 65° (ENE) 18:26:47 437.250
BEESAT 3 29 Jul 18:23:16 18:27:06 59° 122° (ESE) 18:31:01 437.485
HO-68 29 Jul 18:24:00 18:29:14 22° 53° (NE) 18:34:28 435.675
MOZHAYETS 4 29 Jul 18:25:47 18:28:45 17° 298° (WNW) 18:31:42
BEESAT 2 29 Jul 18:34:57 18:38:41 42° 119° (ESE) 18:42:28 435.950
Cubesat XI-IV 29 Jul 18:37:19 18:42:42 77° 256° (WSW) 18:48:08 437.490
GOMX 1 29 Jul 18:39:12 18:43:24 87° 80° (E) 18:47:52 467.674
CANX-2 29 Jul 18:45:12 18:47:17 13° 61° (ENE) 18:49:22 2200.000
CUTE 1.7 + AOD 2 29 Jul 18:57:32 19:00:05 16° 62° (ENE) 19:02:38 437.475
CUTE-I 29 Jul 19:00:24 19:05:36 49° 261° (W) 19:10:49 437.470
YUBILEINY 29 Jul 19:09:29 19:15:47 21° 58° (ENE) 19:22:01 435.215
STRAND 1 29 Jul 19:11:52 19:14:56 16° 90° (E) 19:17:59 437.568
NOAA 15 29 Jul 19:12:31 19:17:02 29° 265° (W) 19:21:35 137.62
SEEDS 29 Jul 19:30:39 19:34:02 24° 66° (ENE) 19:37:25 437.485
BRITE-PL 29 Jul 19:32:19 19:34:02 12° 272° (W) 19:35:45 437.365/2234.400
PHONESAT 2.4 29 Jul 19:37:06 19:39:46 27° 190° (S) 19:42:27 2401.200-2431.200
COMPASS 1 29 Jul 19:37:38 19:40:42 20° 65° (ENE) 19:43:46 437.405
O/OREOS (USA 219) 29 Jul 19:40:00 19:43:06 19° 101° (E) 19:46:14 437.305
LilacSat-2 29 Jul 19:46:25 19:48:12 13° 270° (W) 19:49:59 437.200
CINEMA 3 29 Jul 19:47:11 19:51:43 61° 73° (ENE) 19:56:29 145.822/145.860
AO-85 29 Jul 19:47:29 19:48:06 10° 20° (NNE) 19:48:43 145.980
CUBESAT XI-V 29 Jul 19:52:27 19:55:28 18° 298° (WNW) 19:58:30 437.345
PCSat 29 Jul 19:53:49 19:59:12 68° 305° (NW) 20:04:39 145.827
DOVE 4 29 Jul 19:56:33 20:00:30 33° 265° (W) 20:04:42 437.250
FUNcube-1 29 Jul 20:02:08 20:04:24 14° 60° (ENE) 20:06:39 145.935
NOAA 18 29 Jul 20:02:10 20:05:30 16° 270° (W) 20:08:52 137.9125
BEESAT 3 29 Jul 20:02:15 20:05:08 19° 321° (NW) 20:08:03 437.485
AAUSAT CUBESAT 2 29 Jul 20:02:35 20:06:09 28° 68° (ENE) 20:09:43 437.432
ZACube-1 29 Jul 20:04:14 20:06:50 15° 61° (ENE) 20:09:28 437.345
UWE-3 29 Jul 20:08:40 20:12:22 24° 65° (ENE) 20:16:07 435.000/436.395/437.385
HO-68 29 Jul 20:08:53 20:16:05 87° 253° (WSW) 20:23:22 435.675
BEESAT 2 29 Jul 20:13:23 20:16:41 24° 318° (NW) 20:19:59 435.950
CANX-2 29 Jul 20:18:20 20:22:36 70° 259° (W) 20:26:52 2200.000
Cubesat XI-IV 29 Jul 20:22:43 20:23:39 10° 274° (W) 20:24:34 437.490
ISS 29 Jul 20:28:59 20:31:41 24° 138° (SE) 20:34:25 145.825
CUTE 1.7 + AOD 2 29 Jul 20:31:16 20:35:29 57° 260° (W) 20:39:43 437.475
CUBEBUG 2 29 Jul 20:35:37 20:40:10 60° 73° (ENE) 20:44:52 437.445
Cosmos 2491 29 Jul 20:36:55 20:44:00 29° 81° (E) 20:51:04 435.465 / 435.565
Oscar 11 29 Jul 20:38:57 20:42:44 30° 68° (ENE) 20:46:33 145.826/435.025
STRAND 1 29 Jul 20:49:32 20:54:38 70° 287° (WNW) 20:59:41 437.568
HUMSAT D 29 Jul 20:55:44 20:56:59 11° 59° (ENE) 20:58:15 437.325/437.525
AIST 2 29 Jul 20:58:37 21:02:41 66° 122° (ESE) 21:06:48 435.215
Cosmos 2504 29 Jul 21:03:07 21:10:14 32° 66° (ENE) 21:16:53 435.465 / 435.565
YUBILEINY 29 Jul 21:05:09 21:14:04 85° 81° (E) 21:22:53 435.215
SEEDS 29 Jul 21:05:44 21:09:35 34° 263° (W) 21:13:27 437.485
M-CUBED/EXP-1 PRIME 29 Jul 21:11:33 21:15:02 31° 61° (ENE) 21:18:47 437.505
COMPASS 1 29 Jul 21:12:04 21:16:00 40° 262° (W) 21:19:58 437.405
PHONESAT 2.4 29 Jul 21:14:41 21:15:40 11° 207° (SSW) 21:16:40 2401.200-2431.200
O/OREOS (USA 219) 29 Jul 21:17:49 21:22:08 48° 299° (WNW) 21:26:30 437.305
AO-85 29 Jul 21:25:51 21:30:02 35° 44° (NE) 21:33:52 145.980
CINEMA 3 29 Jul 21:26:30 21:29:20 16° 272° (W) 21:32:14 145.822/145.860
PRISM 29 Jul 21:30:34 21:34:32 46° 100° (E) 21:38:30 437.425
AUBIESAT-1 29 Jul 21:34:49 21:38:35 44° 65° (ENE) 21:42:40 437.475
FUNcube-1 29 Jul 21:35:27 21:40:00 79° 258° (WSW) 21:44:37 145.935
DELFI C3 29 Jul 21:36:16 21:40:06 51° 73° (ENE) 21:43:57 145.870
ZACube-1 29 Jul 21:38:01 21:42:33 70° 258° (WSW) 21:47:10 437.345
AAUSAT CUBESAT 2 29 Jul 21:38:03 21:41:35 27° 265° (W) 21:45:09 437.432
PCSat 29 Jul 21:40:15 21:43:39 17° 326° (NNW) 21:47:04 145.827
UWE-3 29 Jul 21:44:13 21:48:35 41° 263° (W) 21:53:02 435.000/436.395/437.385
HO-68 29 Jul 22:00:22 22:04:47 17° 272° (W) 22:09:15 435.675
ISS 29 Jul 22:04:44 22:07:56 56° 336° (NNW) 22:11:10 145.825
CUBEBUG 2 29 Jul 22:14:17 22:17:13 16° 271° (W) 22:20:10 437.445
Oscar 11 29 Jul 22:15:06 22:18:51 28° 265° (W) 22:22:37 145.826/435.025
ESTCUBE 1 29 Jul 22:16:41 22:19:19 16° 61° (ENE) 22:21:58 437.505/2401.250
VELOX 1 29 Jul 22:23:02 22:23:53 10° 57° (ENE) 22:24:44 145.980
HUMSAT D 29 Jul 22:27:37 22:31:56 88° 256° (WSW) 22:36:17 437.325/437.525
ANTELSAT 29 Jul 22:31:28 22:35:00 21° 92° (E) 22:38:27 437.575/2403.000
Cosmos 2491 29 Jul 22:31:29 22:40:08 67° 282° (WNW) 22:48:50 435.465 / 435.565
STRAND 1 29 Jul 22:31:32 22:32:52 11° 306° (NW) 22:34:13 437.568
AIST 2 29 Jul 22:38:35 22:41:35 19° 322° (NW) 22:44:37 435.215
M-CUBED/EXP-1 PRIME 29 Jul 22:46:19 22:49:35 25° 261° (W) 22:53:06 437.505
DX 1 29 Jul 22:55:28 22:58:11 17° 61° (ENE) 23:00:55 434.975-435.025
Cosmos 2504 29 Jul 22:56:12 23:04:08 58° 269° (W) 23:11:29 435.465 / 435.565
YUBILEINY 29 Jul 23:03:28 23:09:43 22° 283° (WNW) 23:15:56 435.215
UKube-1 29 Jul 23:03:41 23:06:18 16° 61° (ENE) 23:08:56 .
AISAT 29 Jul 23:04:53 23:08:36 28° 66° (ENE) 23:12:20 437.250
AO-85 29 Jul 23:06:34 23:10:22 29° 245° (WSW) 23:13:55 145.980
PRISM 29 Jul 23:06:46 23:09:31 18° 297° (WNW) 23:12:17 437.425
AUBIESAT-1 29 Jul 23:10:36 23:13:20 18° 264° (W) 23:16:13 437.475
AIST 1 29 Jul 23:10:45 23:12:45 13° 66° (ENE) 23:14:45
TIGRISAT 29 Jul 23:11:37 23:16:08 50° 99° (E) 23:20:32 435.000
DELFI C3 29 Jul 23:13:09 23:15:16 14° 270° (W) 23:17:23 145.870
QB50P2 29 Jul 23:20:43 23:21:59 11° 88° (E) 23:23:14 145.880/145.840
POLYITAN 1 29 Jul 23:23:15 23:24:38 11° 88° (E) 23:26:01 437.675
UNISAT 6 29 Jul 23:28:55 23:33:35 80° 103° (ESE) 23:38:07 437.425
SPROUT 29 Jul 23:30:21 23:33:42 23° 65° (ENE) 23:37:05 437.525
ISS 29 Jul 23:41:59 23:44:49 26° 356° (N) 23:47:39 145.825
50 SAT 29 Jul 23:45:24 23:49:01 68° 76° (ENE) 23:52:40 437.505
CUBEBUG 1 29 Jul 23:48:42 23:53:00 82° 75° (ENE) 23:57:22 437.445
ESTCUBE 1 29 Jul 23:51:11 23:55:37 65° 258° (WSW) 00:00:06 437.505/2401.250
VELOX 1 29 Jul 23:55:13 23:59:36 84° 75° (ENE) 00:04:02 145.980
NANOSAT C BR1 30 Jul 00:01:42 00:05:23 27° 95° (E) 00:09:02 145.865
DUCHIFAT 1 30 Jul 00:04:31 00:08:12 27° 95° (E) 00:11:50 145.980
ANTELSAT 30 Jul 00:07:31 00:11:55 43° 290° (WNW) 00:16:12 437.575/2403.000
BUGSAT 1 30 Jul 00:07:53 00:10:05 14° 90° (E) 00:12:17 437.445
TISAT 1 30 Jul 00:15:32 00:18:22 18° 63° (ENE) 00:21:11 437.305
QB50P1 30 Jul 00:25:33 00:29:45 51° 100° (E) 00:33:56 145.935-145.965
DX 1 30 Jul 00:29:42 00:33:57 57° 259° (W) 00:38:14 434.975-435.025
POPSAT HIP 1 30 Jul 00:32:16 00:36:32 60° 101° (E) 00:40:46 437.405
Cosmos 2491 30 Jul 00:34:09 00:38:57 16° 307° (NW) 00:43:48 435.465 / 435.565
UKube-1 30 Jul 00:37:40 00:41:54 58° 259° (W) 00:46:11 .
AISAT 30 Jul 00:41:04 00:44:59 31° 264° (W) 00:48:57 437.250
AIST 1 30 Jul 00:46:31 00:50:51 68° 264° (W) 00:55:11
TIGRISAT 30 Jul 00:49:06 00:52:27 20° 297° (WNW) 00:55:44 435.000
ITUPSAT 1 30 Jul 00:52:18 00:53:24 11° 55° (NE) 00:54:29 437.325
QB50P2 30 Jul 00:54:00 00:58:18 75° 286° (WNW) 01:02:34 145.880/145.840
POLYITAN 1 30 Jul 00:56:38 01:00:57 73° 285° (WNW) 01:05:13 437.675
BEESAT 3 30 Jul 01:02:08 01:04:01 13° 33° (NNE) 01:05:53 437.485
SPROUT 30 Jul 01:05:28 01:09:27 37° 263° (W) 01:13:28 437.525
UNISAT 6 30 Jul 01:07:23 01:09:38 14° 301° (WNW) 01:11:52 437.425
GONETS M04 30 Jul 01:13:47 01:21:12 29° 64° (ENE) 01:28:34
BEESAT 2 30 Jul 01:14:53 01:15:57 11° 30° (NNE) 01:17:03 435.950
ISS 30 Jul 01:18:46 01:21:49 36° 16° (NNE) 01:24:52 145.825
CUBEBUG 1 30 Jul 01:29:27 01:29:53 10° 273° (W) 01:30:19 437.445
JAS-2 30 Jul 01:31:42 01:37:02 69° 103° (ESE) 01:42:51 435.910
VELOX 1 30 Jul 01:36:15 01:36:41 10° 272° (W) 01:37:07 145.980
NANOSAT C BR1 30 Jul 01:37:21 01:41:07 30° 292° (WNW) 01:44:49 145.865
SWISSCUBE 30 Jul 01:40:05 01:44:17 31° 66° (ENE) 01:48:30 437.505
DUCHIFAT 1 30 Jul 01:40:08 01:43:52 30° 292° (WNW) 01:47:35 145.980
BUGSAT 1 30 Jul 01:41:38 01:45:51 60° 287° (WNW) 01:50:02 437.445
Cosmos 2499 30 Jul 01:46:32 01:53:11 29° 65° (ENE) 01:59:25 435.465 / 435.565
TISAT 1 30 Jul 01:49:34 01:53:38 49° 260° (W) 01:57:46 437.305
Oscar 19 30 Jul 01:52:50 01:57:25 31° 95° (E) 02:02:00 437.125/150
Gurwin Techsat 1B 30 Jul 01:58:53 02:02:17 17° 90° (E) 02:05:38 435.225
BEESAT 30 Jul 02:00:42 02:05:14 44° 69° (ENE) 02:09:47 436.000
QB50P1 30 Jul 02:02:18 02:05:09 18° 297° (WNW) 02:07:59 145.935-145.965
POPSAT HIP 1 30 Jul 02:09:19 02:11:51 16° 299° (WNW) 02:14:23 437.405
ITUPSAT 1 30 Jul 02:25:35 02:30:23 74° 74° (ENE) 02:35:11 437.325
BEESAT 3 30 Jul 02:38:27 02:42:25 71° 53° (NE) 02:46:21 437.485
BEESAT 2 30 Jul 02:50:46 02:54:43 53° 51° (NE) 02:58:37 435.950
ISS 30 Jul 02:55:10 02:58:21 52° 215° (SW) 03:01:31 145.825
KKS-1 30 Jul 02:55:38 02:58:52 20° 63° (ENE) 03:02:08 437.445
PCSat 30 Jul 02:56:33 03:01:19 30° 44° (NE) 03:06:02 145.827
